Погода в Брагине

Погода в Брагине : погода сейчас, прогноз погоды и архив. Всё, что Вы хотите узнать о погоде в Брагине!

Поиск расширенной информации на нашем сайте:

Другие новости

Новости СМИ2

Главная страница сайта

Новости сайта

03.07.2017

Напоминаем, что на нашем специализированном сайте Метеоцентр.Азия вы можете получить высокодетализированные автоматические прогнозы погоды по пунктам России, СНГ и мира в авиационном формате (включающие направление и скорость ветра, видимость, явления погоды, количество и форму облачности, нижнюю и верхнюю границу облачности).


Погода в Брагине - сегодня

Время (UTC), дата Ветер
(°,м/с) 
Видим.   Явления Облачность Т
(°С)
Тd
(°С)
f(%) Тe
(°С)
Pmin
(гПа)
dP
(гПа)
Po
(мм)
O2
(г/м3)
Тmin Tmax R s Состояние
почвы
06 20.11.17 120 (ЮВ) 12000 м    4/0 верхняя 
[Ci fib]
-3.2 -4.9 88 -3  1011  0.3  747  305  -4.3         
09 20.11.17 150 (ЮВ) 15000 м    8/4 2000 м средняя, верхняя 
[Ac trans|Ci fib]
+1.4 -0.5 87 +1  1011.3  0.5  748  300           
12 20.11.17 150 (ЮВ) 13000 м    9/9 2000 м средняя 
[Ac trans]
+2.1 +0.2 87 +1  1010.1  -1.1  747  299           
15 20.11.17 100 (В) 7000 м  дымка  3/0 верхняя 
[Ci fib]
+0.4 -0.7 92 -1  1009.8  -0.4  746  300           
18 20.11.17 130 (ЮВ) 6000 м  дымка  4/0 верхняя 
[Ci fib]
-0.6 -1.2 96 -1  1009.8  -0.1  746  302    +2.3       
06 21.11.17 290 (З) 4200 м  дымка  9/5 600 м средняя 
[Sc|Ac und]
-0.2 -0.5 98 1009.9  0.7  747  301  -1.3    0.1     
09 21.11.17 250 (З) 4200 м  дымка  10/10 200 м 
[St]
+0.9 +0.6 98 1010.7  0.8  747  300           
12 21.11.17 330 (СЗ) 8000 м  дымка  9/9 300 м 
[St]
+1.1 +0.3 94 +2  1010.7  747  300           
15 21.11.17 270 (З) 8000 м  дымка  9/4 600 м средняя 
[Sc|Ac und]
+0.3 -0.5 94 -1  1011.5  0.8  748  301           
18 21.11.17 280 (З) 9000 м  дымка  10/10 600 м 
[Sc]
+0.4 -0.7 92 -1  1011.9  0.4  748  301    +1.6       
06 22.11.17 330 (СЗ) 5000 м  в посл. час ливневой снег  10/10 600 м 
[Sc]
+0.3 -0.1 97 1013.8  0.8  749  302  -0.3    0.0     
09 22.11.17 310 (СЗ) 5000 м  дымка{ливн. осадки}  10/10 600 м 
[Sc]
+0.4 -0 97 1014.9  1.1  750  302           
12 22.11.17 340 (С) 26000 м  {ливн. осадки}  9/9 600 м 
[Sc]
+1.3 -0.9 85 +1  1015.7  0.9  751  301           
15 22.11.17 310 (СЗ) 30000 м    9/9 600 м 
[Sc]
+0.4 -1.7 86 +1  1017.1  1.3  752  303      0.2     
18 22.11.17 330 (СЗ) 35000 м    10/10 600 м 
[Sc]
+0.4 -2.1 83 +1  1018.4  1.3  753  303    +1.4  0.2     
06 23.11.17 320 (СЗ) 9000 м  дымка  ясно 
-3.4 -4.5 92 -3  1022.2  755  309  -4.2         
09 23.11.17 300 (СЗ) 15000 м    3/0 верхняя 
[Ci fib]
+0.9 -1.2 86 1022.4  0.4  756  304           
12 23.11.17 280 (З) 40000 м    4/0 
[Sc]
+1.9 -2 75 1022.2  -0.1  756  303           
15 23.11.17 тихо ()   9000 м  дымка  3/0 верхняя 
[Ci fib]
-1.2 -2.2 93 -1  1022.8  0.4  756  306           
18 23.11.17 100 (В) 6000 м  дымка  ясно 
-2.7 -3.5 94 -4  1023.3  0.4  756  308    +2.1       
06 24.11.17 130 (ЮВ) 5000 м  дымка [диам. изморози 3 мм]  10/10 300 м 
[St]
-4.1 -4.9 94 -4  1023.6  -0.1  756  310  -6.2         
09 24.11.17 130 (ЮВ) 7000 м  дымка [диам. изморози 3 мм]  10/10 300 м 
[St]
-2.2 -3.1 94 -4  1024.1  0.6  757  308           
12 24.11.17 140 (ЮВ) 8000 м  дымка  10/10 300 м 
[St]
-1.5 -2.1 96 -4  1023.8  -0.2  757  307           
15 24.11.17 140 (ЮВ) 9000 м  дымка  10/10 600 м 
[Sc]
-1.8 -2.9 92 -5  1023.3  -0.5  756  307           
18 24.11.17 160 (Ю) 9000 м  дымка  10/10 600 м 
[Sc]
-2 -3.2 91 -5  1023.3  756  307    -1.5       
Время (UTC), дата Ветер
(°,м/с) 
Видим.   Явления Облачность Т
(°С)
Тd
(°С)
f(%) Тe
(°С)
Pmin
(гПа)
dP
(гПа)
Po
(мм)
O2
(г/м3)
Тmin Tmax R s Состояние
почвы

Для получения пояснительной информации подведите курсор к названию столбца.

ПОГОДА в Брагине - архив

Всё, что Вы хотите узнать о погоде в Брагине - удобно и подробно!

Выберите нужную дату (начиная с 1 января 2015* года) и нажмите кнопку "Найти".
Будут отображены архивные сводки погоды по пункту Брагин, начиная с указанной даты.


Отображать данные в формате CSV (для использования в таблицах Excel)


Внимание! Наш архив погоды предназначен исключительно для личного некоммерческого использования в познавательных целях. Если Вам необходимы официальные справки о состоянии погоды (для производственных, юридических, коммерческих и т.п. целей), обращайтесь в органы Росгидромета.

*Примечание: данная дата относится к архиву по метеостанциям СССР (Россия, СНГ, Балтия).
Архив по метеостанциям Зарубежной Европы и Азии (кроме Китая) хранится 10 дней, по другим регионам земного шара (Китай, Африка, Америка, Австралия, Океания) - 1 день.

Брагин - район местоположения метеостанции


Название, широта, долгота, высота метеостанции:
Брагин 51.8°ш. 30.3°д. 116 м над ур. моря [Беларусь]

Дополнительная информация

В oтличие oт бoльшинства пoгoдных сайтoв мы публикуем пoдрoбную метеoинфoрмацию в детальнoм прoфессиoнальнoм фoрмате.

Характеристики температуры и влажнoсти вoздуха измеряются на высoте 2 м в тени вдали oт зданий и деревьев.
Скoрoсть ветра измеряется на высoте 10 м (на урoвне рoста челoвека скoрoсть ветра ниже в 1.5-2 раза). Если метеoстанция нахoдится в гoрoде или в лесу, тo скoрoсть ветра занижена на 2-4 м/с пo сравнению с oткрытым местoм. Скoрoсть ветра над акватoриями крупных рек и oзёр, а также на вершинах хoлмoв на 2-5 м/с выше, чем в oбычных услoвиях.
Атмoсфернoе давление в разных тoчках местнoсти мoжет значительнo oтличаться oт давления на метеoстанции, в зависимoсти oт услoвий рельефа (при пoдъёме на 10 м давление пoнижается примернo на 1 мм рт.ст.).